Regional Weather Roundup
Issued by NWS

Home | Current Version | Previous Version | Graphics & Text | Print | Product List | Glossary On
Versions: 1 2 3 4 5 6 7 8 9 10 11 12 13 14 15 16 17 18 19 20 21 22 23 24 25 26 27 28 29 30 31 32 33 34 35 36 37 38 39 40 41 42 43 44 45 46 47 48 49 50
711
ASUS45 KTFX 260710
RWRMT
MONTANA REGIONAL WEATHER ROUNDUP
NATIONAL WEATHER SERVICE GREAT FALLS MT
100 AM MDT SUN MAR 26 2017

NOTE: "FAIR" INDICATES FEW OR NO CLOUDS BELOW 12000 FEET WITH NO
SIGNIFICANT WEATHER AND/OR OBSTRUCTIONS TO VISIBILITY.

MTZ001>007-043-260800-
WEST OF THE DIVIDE

CITY           SKY/WX    TMP DP  RH WIND       PRES   REMARKS
KALISPELL      CLOUDY    35  29  78 CALM      29.98F
MISSOULA       MOCLDY    39  32  76 CALM      30.03S
BUTTE          CLEAR     34  25  69 SW3       29.98R
MULLAN PASS    CLOUDY    25  24  96 VRB7      29.94F WCI  17
ANACONDA         N/A     32  27  80 NW3       30.00R
DEER LODGE       N/A     36  28  75 NE8       30.01F WCI  29
EUREKA           N/A     34  25  69 CALM      29.98S
HAMILTON         N/A     39  34  81 S5        30.02S
PLAINS           N/A     37  27  68 CALM      30.03S
RONAN            N/A     39  33  79 SE7       30.04S
THOMPSON FALLS   N/A     36  33  88 CALM      30.07S
$$

MTZ008-052>055-260800-
SOUTHWEST MONTANA

CITY           SKY/WX    TMP DP  RH WIND       PRES   REMARKS
BOZEMAN        CLOUDY    34  30  85 SE6       29.94S WCI  29
DILLON         CLOUDY    38  23  55 S8        29.95R
W YELLOWSTONE  CLOUDY    28  28 100 CALM      29.98S
ENNIS          CLOUDY    36  30  80 S10       29.99S WCI  28
THREE FORKS      N/A     40 -34   3 CALM      29.96R
$$

MTZ009-010-012-014-046-048-049-054-260800-
EAST SLOPES AND CENTRAL MONTANA

CITY           SKY/WX    TMP DP  RH WIND       PRES   REMARKS
CUT BANK       PTCLDY    31  20  63 W13       29.89S WCI  21
GREAT FALLS    CLOUDY    39  24  55 W16       29.93R WCI  30
MALMSTROM AFB  CLEAR     33  24  70 SW5       29.94R
HELENA         CLOUDY    42  29  59 SW9       29.97R
AUGUSTA        MOCLDY    35  21  57 SW8       29.91F WCI  28
BOWMANS CRNR     N/A     36  23  61 W5        29.92S
CHOTEAU          N/A     39  23  52 SW12      29.93F WCI  32
CONRAD           N/A     33  30  89 SW6       29.94S WCI  27
FAIRFIELD        N/A     37  21  54 SW8       29.92S WCI  30
POWER            N/A     29  23  79 SW8       29.92R WCI  21
RAYNESFORD     MOCLDY    30  22  70 CALM      29.94S
$$

MTZ011-013-016-021-045-047-050-051-260800-
NORTH CENTRAL MONTANA

CITY           SKY/WX    TMP DP  RH WIND       PRES   REMARKS
HAVRE          CLOUDY    41  28  60 W7        29.90R
LEWISTOWN      PTCLDY    33  21  61 CALM      29.93R
N BAR RANCH      N/A     36  18  48 W3        29.94S
CHINOOK          N/A     37  25  60 SW5       29.91R
DENTON           N/A     36  22  57 NW6       29.88S WCI  31
FORT BENTON      N/A     34  21  60 MISG      29.94S
GEYSER           N/A     35  21  56 SW14      29.92S WCI  26
GRASS RANGE      N/A     37  22  55 W6        29.88S WCI  32
STANFORD         N/A     31  21  66 W12       29.92S WCI  22
WINIFRED         N/A     35  23  60 W8        29.91R WCI  29
$$

MTZ017>020-022>027-061-062-260800-
NORTHEAST MONTANA

CITY           SKY/WX    TMP DP  RH WIND       PRES   REMARKS
GLASGOW        CLOUDY    42  29  59 SE7       29.88S
JORDAN           N/A     41  33  73 CALM      29.89S
SIDNEY         CLOUDY    42  30  62 W6        29.89S
WOLF POINT     CLOUDY    39  32  76 NW3       29.89S
MALTA          PTCLDY    36  28  75 W6        29.88S WCI  31
PLENTYWOOD       N/A     43  34  70 E3        29.89F
POPLAR           N/A     39  30  70 NE3       29.89S
SCOBEY           N/A     36  21  54 W2        29.87S
$$

MTZ028>42-056>058-260800-
SOUTHCENTRAL AND SOUTHEAST MONTANA

CITY           SKY/WX    TMP DP  RH WIND       PRES   REMARKS
BAKER          LGT RAIN  43  38  82 CALM      29.93R
BILLINGS       CLOUDY    44  32  62 S5        29.91F
LIVINGSTON     PTCLDY    31  27  85 N6        29.93S WCI  25
MILES CITY     MOCLDY    46  35  65 SW5       29.91S
BIG TIMBER     PTCLDY    36  30  80 W9        29.96S WCI  29
EKALAKA          N/A     42  38  86 N6        29.91
FORSYTH          N/A     46  36  66 CALM      29.90F
HARLOWTON      MOCLDY    35  23  60 NW12      29.91F WCI  27
LAUREL           N/A     36  26  67 CALM      29.91F
ROUNDUP          N/A     41  30  65 S7        29.83S
$$

REGIONAL REPORTS...DAKOTAS

CITY           SKY/WX    TMP DP  RH WIND       PRES   REMARKS
WILLISTON      PTCLDY    43  33  68 N8        29.90R
MINOT          CLOUDY    43  35  73 S6        29.89R
DICKINSON      CLOUDY    46  29  51 CALM      29.88S
BEACH            N/A    N/A N/A N/A MISG        N/A
TIOGA            N/A     37  37 100 CALM      29.91S
WATFORD CITY     N/A     41  34  75 N3        29.89R
BISMARCK       CLOUDY    41  35  79 SE5       29.93S
GRAND FORKS    CLOUDY    33  32  96 S7        29.99F WCI  27
FARGO          CLOUDY    35  33  92 S6        29.99F WCI  30
BUFFALO SD       N/A     45  36  70 NE9       29.82S
RAPID CITY     CLOUDY    46  30  53 N10       29.82R
$$

REGIONAL REPORTS...WYOMING/IDAHO/WASHINGTON

CITY           SKY/WX    TMP DP  RH WIND       PRES   REMARKS
GILLETTE       CLOUDY    42  36  79 N15       29.90S
SHERIDAN       LGT RAIN  38  37  97 S5        29.95F
BUFFALO WY     LGT RAIN  36  32  85 NW10      29.94S WCI  28
CODY           CLOUDY    36  30  79 W3        29.95S
YELLOWSTONE LA   N/A     23  20  88 CALM      30.00S
IDAHO FALLS    CLEAR     37  26  64 S10       29.98S WCI  30
SALMON         CLEAR     37  21  52 S9        29.98R WCI  31
BOISE          CLEAR     42  30  62 SE8       29.99F
SPOKANE        PTCLDY    37  31  78 SE10      29.98F WCI  30
$$

REGIONAL REPORTS...ALBERTA

CITY           SKY/WX    TMP DP  RH WIND       PRES   REMARKS
EDMONTON       CLOUDY    37  30  75 SW5       29.79S
CALGARY        CLEAR     37  12  35 W16       29.78S WCI  28
LETHBRIDGE     CLEAR     28  19  69 SW9       29.86S WCI  20
MEDICINE HAT   CLEAR     34  27  75 SW10      29.84S WCI  26
WATERTON GATE    N/A     34  18  51 SW13        N/A  WCI  25
CARDSTON         N/A     32  18  55 S5          N/A
MILK RIVER       N/A     30  25  80 W7          N/A  WCI  23
$$

REGIONAL REPORTS...SASKATCHEWAN

CITY           SKY/WX    TMP DP  RH WIND       PRES   REMARKS
SWIFT CURRENT  CLEAR     37  23  56 SW10      29.82S WCI  30
REGINA         MOCLDY    36  34  93 SE7       29.86S WCI  30
SASKATOON      PTCLDY    30  28  93 E7        29.87S WCI  23
CYPRESS HILLS    N/A     36  16  44 W8          N/A  WCI  29
VAL MARIE        N/A     32  27  80 SW1         N/A
ASSINIBOIA       N/A     27  27 100 NE3         N/A
$$




USA.gov is the U.S. government's official web portal to all federal, state and local government web resources and services.